WBANNO,USDM_WEEK,LONGITUDE,LATITUDE,SMVWC_5_CM_MEAN,SMANOM_5_CM_MEAN,SMPERC_5_CM_30COUNTS,SMPERC_5_CM_70COUNTS,SMVWC_10_CM_MEAN,SMANOM_10_CM_MEAN,SMPERC_10_CM_30COUNTS,SMPERC_10_CM_70COUNTS,SMVWC_20_CM_MEAN,SMANOM_20_CM_MEAN,SMPERC_20_CM_30COUNTS,SMPERC_20_CM_70COUNTS,SMVWC_50_CM_MEAN,SMANOM_50_CM_MEAN,SMPERC_50_CM_30COUNTS,SMPERC_50_CM_70COUNTS,SMVWC_100_CM_MEAN,SMANOM_100_CM_MEAN,SMPERC_100_CM_30COUNTS,SMPERC_100_CM_70COUNTS,SMVWC_TOP_CM_MEAN,SMANOM_TOP_CM_MEAN,SMPERC_TOP_CM_30COUNTS,SMPERC_TOP_CM_70COUNTS,SMVWC_COLUMN_CM_MEAN,SMANOM_COLUMN_CM_MEAN,SMPERC_COLUMN_CM_30COUNTS,SMPERC_COLUMN_CM_70COUNTS
94082,20110420,-108.97,40.24,,,,,,,,,,,,,,,,,,,,,,,,,,,,
94082,20110421,-108.97,40.24,,,,,,,,,,,,,,,,,,,,,,,,,,,,
94082,20110422,-108.97,40.24,,,,,,,,,,,,,,,,,,,,,,,,,,,,
94082,20110423,-108.97,40.24,,,,,,,,,,,,,,,,,,,,,,,,,,,,
94082,20110424,-108.97,40.24,,,,,,,,,,,,,,,,,,,,,,,,,,,,
94082,20110425,-108.97,40.24,,,,,,,,,,,,,,,,,,,,,,,,,,,,
94082,20110426,-108.97,40.24,0.337,0.7,0,1,0.375,0.62,0,1,0.319,0.31,0,0.91,0.369,0.26,0,0.155,0.313,0.7,0,0.206,0.356,0.67,0,1,0.343,0.58,0,0.91
94082,20110427,-108.97,40.24,0.339,0.73,0,1,0.376,0.64,0,1,0.326,0.39,0,0.988,0.37,0.27,0,0.157,0.317,0.73,0,0.301,0.358,0.69,0,1,0.346,0.63,0,0.988
94082,20110428,-108.97,40.24,0.342,0.78,0,0.994,0.38,0.67,0,1,0.328,0.42,0,1,0.371,0.27,0,0.244,0.32,0.77,0,0.44,0.361,0.73,0,1,0.348,0.67,0,1
94082,20110429,-108.97,40.24,0.341,0.79,0,0.994,0.382,0.69,0,1,0.329,0.45,0,1,0.371,0.27,0,0.369,0.323,0.79,0,0.583,0.361,0.75,0,1,0.349,0.7,0,1
94082,20110430,-108.97,40.24,0.339,0.8,0,0.994,0.381,0.68,0,1,0.33,0.48,0,1,0.371,0.28,0,0.512,0.325,0.81,0,0.726,0.36,0.76,0,1,0.349,0.72,0,1
94082,20110501,-108.97,40.24,0.336,0.79,0,0.994,0.379,0.66,0,1,0.329,0.5,0,1,0.372,0.29,0,0.631,0.327,0.83,0,0.869,0.358,0.76,0,1,0.349,0.73,0,1
94082,20110502,-108.97,40.24,0.333,0.79,0,0.994,0.378,0.64,0,1,0.329,0.51,0,1,0.372,0.29,0,0.667,0.328,0.84,0,0.94,0.356,0.76,0,1,0.348,0.75,0,1
94082,20110503,-108.97,40.24,0.331,0.8,0,0.994,0.377,0.64,0,1,0.329,0.54,0,1,0.372,0.29,0,0.78,0.329,0.85,0,0.964,0.354,0.76,0,1,0.348,0.77,0,1
94082,20110504,-108.97,40.24,0.33,0.82,0,0.994,0.377,0.65,0,1,0.329,0.57,0,1,0.372,0.3,0,0.911,0.33,0.86,0,1,0.354,0.78,0,1,0.348,0.8,0,1
94082,20110505,-108.97,40.24,0.33,0.84,0,1,0.377,0.67,0,1,0.33,0.61,0,1,0.373,0.31,0,0.964,0.331,0.87,0,1,0.354,0.8,0,1,0.348,0.83,0,1
94082,20110506,-108.97,40.24,0.328,0.84,0,1,0.377,0.67,0,1,0.331,0.64,0,1,0.373,0.32,0,0.982,0.332,0.88,0,1,0.352,0.8,0,1,0.348,0.85,0,1
94082,20110507,-108.97,40.24,0.327,0.86,0,1,0.377,0.69,0,1,0.331,0.68,0,1,0.374,0.33,0,0.982,0.333,0.89,0,1,0.352,0.81,0,1,0.348,0.88,0,1
94082,20110508,-108.97,40.24,0.327,0.88,0,1,0.378,0.72,0,1,0.333,0.73,0,1,0.375,0.34,0,0.982,0.333,0.9,0,1,0.353,0.83,0,1,0.349,0.91,0,1
94082,20110509,-108.97,40.24,0.326,0.9,0,1,0.38,0.75,0,1,0.335,0.79,0,1,0.376,0.35,0,1,0.335,0.91,0,1,0.353,0.85,0,1,0.35,0.94,0,1
94082,20110510,-108.97,40.24,0.324,0.9,0,1,0.378,0.76,0,1,0.335,0.83,0,1,0.378,0.37,0,1,0.336,0.92,0,1,0.351,0.85,0,1,0.35,0.95,0,1
94082,20110511,-108.97,40.24,0.324,0.92,0,1,0.377,0.76,0,1,0.335,0.87,0,1,0.378,0.38,0,1,0.338,0.93,0,1,0.351,0.86,0,1,0.35,0.97,0,1
94082,20110512,-108.97,40.24,0.323,0.92,0,1,0.375,0.76,0,1,0.334,0.89,0,1,0.378,0.39,0,1,0.339,0.95,0,1,0.349,0.86,0,1,0.35,0.98,0,1
94082,20110513,-108.97,40.24,0.323,0.94,0,1,0.374,0.77,0,1,0.334,0.92,0,1,0.378,0.39,0,1,0.339,0.95,0,1,0.348,0.87,0,1,0.35,1,0,1
94082,20110514,-108.97,40.24,0.323,0.95,0,1,0.374,0.77,0,1,0.333,0.94,0,1,0.378,0.4,0,1,0.34,0.95,0,1,0.348,0.88,0,1,0.35,1.02,0,1
94082,20110515,-108.97,40.24,0.323,0.96,0,1,0.372,0.77,0,1,0.332,0.96,0,1,0.378,0.41,0,1,0.34,0.95,0,1,0.348,0.89,0,1,0.349,1.04,0,1
94082,20110516,-108.97,40.24,0.323,0.97,0,1,0.372,0.78,0,1,0.332,0.98,0,1,0.378,0.42,0,1,0.341,0.96,0,1,0.347,0.89,0,1,0.349,1.07,0,1
94082,20110517,-108.97,40.24,0.323,0.98,0,1,0.372,0.8,0,1,0.331,0.99,0,1,0.378,0.44,0,1,0.341,0.97,0,1,0.347,0.9,0,1,0.349,1.09,0,1
94082,20110518,-108.97,40.24,0.325,1,0,1,0.374,0.82,0,1,0.331,1,0,1,0.378,0.46,0,1,0.342,0.97,0,1,0.349,0.93,0,1,0.35,1.13,0,1
94082,20110519,-108.97,40.24,0.33,1.04,0,1,0.378,0.87,0,1,0.331,1.02,0,1,0.378,0.48,0,1,0.341,0.97,0,1,0.354,0.98,0,1,0.352,1.18,0,1
94082,20110520,-108.97,40.24,0.335,1.08,0,1,0.383,0.93,0,1,0.333,1.05,0,1,0.377,0.5,0,1,0.342,0.98,0,1,0.359,1.04,0,1,0.354,1.23,0,1
94082,20110521,-108.97,40.24,0.341,1.13,0,1,0.388,0.99,0,1,0.336,1.1,0,1,0.377,0.52,0,1,0.342,1,0,1,0.365,1.1,0,1,0.357,1.29,0,1
94082,20110522,-108.97,40.24,0.348,1.18,0,1,0.393,1.07,0,1,0.34,1.17,0,1,0.377,0.55,0,1,0.343,1,0,1,0.371,1.17,0,1,0.36,1.35,0,1
94082,20110523,-108.97,40.24,0.355,1.23,0,1,0.399,1.15,0,1,0.344,1.24,0,1,0.378,0.59,0,1,0.342,1.01,0,1,0.377,1.24,0,1,0.363,1.4,0,1
94082,20110524,-108.97,40.24,0.362,1.28,0,1,0.404,1.23,0,1,0.348,1.33,0,1,0.379,0.63,0,1,0.342,1.01,0,1,0.383,1.32,0,1,0.367,1.47,0,1
94082,20110525,-108.97,40.24,0.364,1.3,0,1,0.409,1.29,0,1,0.352,1.43,0,1,0.38,0.69,0,1,0.343,1.03,0,1,0.386,1.36,0,1,0.37,1.52,0,1
94082,20110526,-108.97,40.24,0.365,1.31,0,1,0.411,1.34,0,1,0.356,1.54,0,1,0.382,0.75,0,1,0.343,1.06,0,1,0.388,1.4,0,1,0.372,1.56,0,1
94082,20110527,-108.97,40.24,0.364,1.31,0,1,0.41,1.37,0,1,0.358,1.62,0,1,0.385,0.81,0,1,0.344,1.08,0,1,0.387,1.41,0,1,0.372,1.58,0,1
94082,20110528,-108.97,40.24,0.361,1.3,0,1,0.409,1.38,0,1,0.357,1.68,0,1,0.387,0.88,0,1,0.345,1.12,0,1,0.385,1.41,0,1,0.372,1.59,0,1
94082,20110529,-108.97,40.24,0.357,1.3,0,1,0.407,1.38,0,1,0.356,1.72,0,1,0.388,0.94,0,1,0.346,1.16,0,1,0.382,1.41,0,1,0.371,1.6,0,1
94082,20110530,-108.97,40.24,0.354,1.29,0,1,0.404,1.38,0,1,0.355,1.77,0,1,0.389,1,0,1,0.348,1.21,0,1,0.379,1.41,0,1,0.37,1.6,0,1
94082,20110531,-108.97,40.24,0.349,1.29,0,1,0.401,1.37,0,1,0.353,1.8,0,1,0.389,1.06,0,1,0.349,1.25,0,1,0.375,1.39,0,1,0.368,1.6,0,1
94082,20110601,-108.97,40.24,0.345,1.3,0,1,0.399,1.37,0,1,0.351,1.83,0,1,0.389,1.11,0,1,0.35,1.29,0,1,0.372,1.39,0,1,0.367,1.6,0,1
94082,20110602,-108.97,40.24,0.341,1.31,0,1,0.396,1.36,0,1,0.35,1.85,0,1,0.389,1.17,0,1,0.351,1.32,0,1,0.369,1.38,0,1,0.365,1.6,0,1
94082,20110603,-108.97,40.24,0.338,1.32,0,1,0.394,1.37,0,1,0.348,1.87,0,1,0.389,1.24,0,1,0.351,1.36,0,1,0.366,1.38,0,1,0.364,1.6,0,1
94082,20110604,-108.97,40.24,0.333,1.32,0,1,0.391,1.38,0,1,0.347,1.9,0,1,0.388,1.31,0,1,0.352,1.4,0,1,0.362,1.37,0,1,0.362,1.6,0,1
94082,20110605,-108.97,40.24,0.329,1.33,0,1,0.389,1.39,0,1,0.346,1.91,0,1,0.388,1.38,0,1,0.351,1.43,0,1,0.359,1.37,0,1,0.361,1.6,0,1
94082,20110606,-108.97,40.24,0.323,1.33,0,1,0.387,1.41,0,1,0.345,1.92,0,1,0.388,1.46,0,1,0.352,1.47,0,1,0.355,1.36,0,1,0.359,1.59,0,1
94082,20110607,-108.97,40.24,0.318,1.33,0,1,0.386,1.43,0,1,0.344,1.92,0,1,0.388,1.54,0,1,0.352,1.53,0,1,0.352,1.36,0,1,0.357,1.6,0,1
94082,20110608,-108.97,40.24,0.309,1.31,0,1,0.383,1.43,0,1,0.342,1.9,0,1,0.388,1.63,0,1,0.352,1.59,0,1,0.346,1.34,0,1,0.355,1.59,0,1
94082,20110609,-108.97,40.24,0.299,1.28,0,1,0.38,1.43,0,1,0.34,1.87,0,1,0.388,1.72,0,1,0.353,1.66,0,1,0.34,1.31,0,1,0.352,1.58,0,1
94082,20110610,-108.97,40.24,0.288,1.24,0,1,0.376,1.41,0,1,0.338,1.83,0,1,0.387,1.81,0,1,0.354,1.73,0,1,0.332,1.27,0,1,0.349,1.57,0,1
94082,20110611,-108.97,40.24,0.278,1.2,0,1,0.371,1.38,0,1,0.336,1.79,0,1,0.387,1.91,0,1,0.354,1.79,0,1,0.324,1.23,0,1,0.345,1.56,0,1
94082,20110612,-108.97,40.24,0.266,1.16,0,1,0.367,1.34,0,1,0.333,1.76,0,1,0.386,2.01,0,1,0.355,1.89,0,1,0.317,1.2,0,1,0.342,1.55,0,1
94082,20110613,-108.97,40.24,0.255,1.13,0,1,0.362,1.3,0,1,0.331,1.74,0,1,0.385,2.13,0,1,0.356,1.98,0,1,0.308,1.16,0,1,0.338,1.55,0,1
94082,20110614,-108.97,40.24,0.244,1.1,0,1,0.356,1.26,0,1,0.328,1.74,0,1,0.384,2.25,0,1,0.356,2.07,0,1,0.3,1.12,0,1,0.334,1.55,0,1
94082,20110615,-108.97,40.24,0.234,1.08,0,1,0.352,1.24,0,1,0.326,1.75,0,1,0.383,2.38,0,1,0.356,2.16,0,1,0.293,1.11,0,1,0.33,1.57,0,1
94082,20110616,-108.97,40.24,0.224,1.07,0,1,0.347,1.22,0,1,0.323,1.78,0,1,0.382,2.52,0,1,0.356,2.26,0,1,0.286,1.09,0,1,0.326,1.6,0,1
94082,20110617,-108.97,40.24,0.214,1.05,0,1,0.341,1.19,0,1,0.32,1.81,0,1,0.381,2.67,0,1,0.356,2.36,0,1,0.277,1.08,0,1,0.322,1.63,0,1
94082,20110618,-108.97,40.24,0.205,1.05,0,1,0.336,1.18,0,1,0.318,1.84,0,1,0.379,2.81,0,1,0.356,2.49,0,1,0.271,1.08,0,1,0.319,1.67,0,1
94082,20110619,-108.97,40.24,0.199,1.07,0,1,0.331,1.18,0,1,0.315,1.87,0,1,0.377,2.94,0,1,0.356,2.59,0,1,0.265,1.11,0,1,0.315,1.71,0,1
94082,20110620,-108.97,40.24,0.193,1.09,0,1,0.325,1.17,0,1,0.312,1.9,0,1,0.374,3.06,0,1,0.355,2.68,0,1,0.259,1.12,0,1,0.312,1.74,0,1
94082,20110621,-108.97,40.24,0.191,1.17,0,1,0.32,1.18,0,1,0.309,1.91,0,1,0.372,3.17,0,1,0.354,2.79,0,1,0.255,1.17,0,1,0.309,1.78,0,1
94082,20110622,-108.97,40.24,0.193,1.31,0,1,0.316,1.2,0,1,0.306,1.94,0,1,0.369,3.25,0,1,0.353,2.91,0,1,0.254,1.26,0,1,0.307,1.83,0,1
94082,20110623,-108.97,40.24,0.198,1.51,0,1,0.313,1.25,0,1,0.304,1.99,0,1,0.367,3.3,0,1,0.352,3.04,0,1,0.256,1.39,0,1,0.307,1.9,0,1
94082,20110624,-108.97,40.24,0.206,1.75,0,1,0.313,1.33,0,1,0.303,2.06,0,1,0.364,3.35,0,1,0.351,3.19,0,1,0.26,1.55,0,1,0.307,2.01,0,1
94082,20110625,-108.97,40.24,0.214,2,0,1,0.313,1.42,0,1,0.301,2.15,0,1,0.362,3.39,0,1,0.35,3.34,0,1,0.263,1.7,0,1,0.308,2.13,0,1
94082,20110626,-108.97,40.24,0.219,2.22,0,1,0.312,1.5,0,1,0.3,2.25,0,1,0.36,3.42,0,1,0.35,3.53,0,1,0.266,1.84,0,1,0.308,2.26,0,1
94082,20110627,-108.97,40.24,0.224,2.42,0,1,0.312,1.59,0,1,0.298,2.34,0,1,0.357,3.43,0,1,0.35,3.74,0,1,0.268,1.96,0,1,0.308,2.39,0,1
94082,20110628,-108.97,40.24,0.223,2.54,0,1,0.312,1.68,0,1,0.297,2.44,0,1,0.355,3.45,0,1,0.351,3.96,0,1,0.268,2.05,0,1,0.308,2.5,0,1
94082,20110629,-108.97,40.24,0.218,2.59,0,1,0.311,1.75,0,1,0.295,2.53,0,1,0.351,3.46,0,1,0.351,4.15,0,1,0.265,2.09,0,1,0.305,2.57,0,1
94082,20110630,-108.97,40.24,0.21,2.54,0,1,0.309,1.79,0,1,0.292,2.59,0,1,0.348,3.46,0,1,0.351,4.33,0,1,0.259,2.07,0,1,0.302,2.6,0,1
94082,20110701,-108.97,40.24,0.198,2.41,0,1,0.304,1.78,0,1,0.288,2.6,0,1,0.344,3.44,0,1,0.352,4.49,0,1,0.251,1.99,0,1,0.297,2.57,0,1
94082,20110702,-108.97,40.24,0.189,2.35,0,1,0.299,1.78,0,1,0.285,2.6,0,1,0.34,3.41,0,1,0.351,4.6,0,1,0.244,1.95,0,1,0.293,2.54,0,1
94082,20110703,-108.97,40.24,0.184,2.37,0,1,0.296,1.8,0,1,0.282,2.61,0,1,0.336,3.37,0,1,0.35,4.68,0,1,0.24,1.94,0,1,0.29,2.52,0,1
94082,20110704,-108.97,40.24,0.183,2.46,0,1,0.294,1.83,0,1,0.279,2.62,0,1,0.332,3.32,0,1,0.349,4.74,0,1,0.238,1.97,0,1,0.287,2.53,0,1
94082,20110705,-108.97,40.24,0.181,2.54,0,1,0.291,1.85,0,1,0.277,2.62,0,1,0.328,3.24,0,1,0.347,4.73,0,1,0.236,2,0,1,0.285,2.54,0,1
94082,20110706,-108.97,40.24,0.18,2.6,0,1,0.287,1.86,0,1,0.275,2.59,0,1,0.324,3.18,0,1,0.346,4.71,0,1,0.234,2.03,0,1,0.282,2.55,0,1
94082,20110707,-108.97,40.24,0.18,2.74,0,1,0.285,1.9,0,1,0.273,2.56,0,1,0.321,3.11,0,1,0.344,4.66,0,1,0.233,2.11,0,1,0.281,2.59,0,1
94082,20110708,-108.97,40.24,0.182,2.87,0,1,0.285,1.98,0,1,0.272,2.55,0,1,0.318,3.03,0,1,0.341,4.57,0,1,0.233,2.22,0,1,0.279,2.66,0,1
94082,20110709,-108.97,40.24,0.179,2.89,0,1,0.282,2.02,0,1,0.27,2.52,0,1,0.315,2.98,0,1,0.339,4.5,0,1,0.231,2.28,0,1,0.277,2.71,0,1
94082,20110710,-108.97,40.24,0.176,2.89,0,1,0.279,2.07,0,1,0.269,2.46,0,1,0.312,2.94,0,1,0.337,4.39,0,1,0.228,2.36,0,1,0.275,2.77,0,1
94082,20110711,-108.97,40.24,0.172,2.85,0,1,0.276,2.09,0,1,0.267,2.39,0,1,0.309,2.9,0,1,0.335,4.25,0,1,0.224,2.43,0,1,0.272,2.84,0,1
94082,20110712,-108.97,40.24,0.17,2.88,0,1,0.273,2.13,0,1,0.265,2.33,0,1,0.307,2.87,0,1,0.333,4.14,0,1,0.221,2.55,0,1,0.269,2.95,0,1
94082,20110713,-108.97,40.24,0.17,2.94,0,1,0.271,2.18,0,1,0.264,2.3,0,1,0.305,2.85,0,1,0.331,4.03,0,1,0.22,2.7,0,1,0.268,3.07,0,1
94082,20110714,-108.97,40.24,0.17,3.02,0,1,0.268,2.22,0,1,0.262,2.27,0,1,0.302,2.82,0,1,0.331,4.08,0,1,0.219,2.82,0,1,0.267,3.21,0,1
94082,20110715,-108.97,40.24,0.174,3.24,0,1,0.266,2.28,0,1,0.261,2.26,0,1,0.3,2.81,0,1,0.333,4.21,0,1,0.22,3.02,0,1,0.267,3.44,0,1
94082,20110716,-108.97,40.24,0.182,3.57,0,1,0.266,2.37,0,1,0.261,2.28,0,1,0.299,2.81,0,1,0.334,4.26,0,1,0.224,3.27,0,1,0.268,3.74,0,1
94082,20110717,-108.97,40.24,0.188,3.85,0,1,0.266,2.44,0,1,0.261,2.32,0,1,0.297,2.81,0,1,0.334,4.3,0,1,0.227,3.48,0,1,0.269,4.04,0,1
94082,20110718,-108.97,40.24,0.195,4.13,0,1,0.267,2.54,0,1,0.261,2.38,0,1,0.296,2.82,0,1,0.335,4.33,0,1,0.231,3.67,0,1,0.271,4.34,0,1
94082,20110719,-108.97,40.24,0.2,4.33,0,1,0.267,2.66,0,1,0.261,2.44,0,1,0.296,2.83,0,1,0.335,4.33,0,1,0.234,3.81,0,1,0.272,4.62,0,1
94082,20110720,-108.97,40.24,0.204,4.47,0,1,0.268,2.8,0,1,0.261,2.5,0,1,0.295,2.82,0,1,0.335,4.3,0,1,0.236,3.89,0,1,0.273,4.87,0,1
94082,20110721,-108.97,40.24,0.207,4.59,0,1,0.269,2.99,0,1,0.261,2.57,0,1,0.295,2.83,0,1,0.333,4.12,0,1,0.238,3.98,0,1,0.273,5.14,0,1
94082,20110722,-108.97,40.24,0.209,4.62,0,1,0.27,3.18,0,1,0.261,2.62,0,1,0.294,2.81,0,1,0.33,3.85,0,1,0.239,4.03,0,1,0.273,5.35,0,1
94082,20110723,-108.97,40.24,0.209,4.55,0,1,0.27,3.38,0,1,0.26,2.65,0,1,0.293,2.78,0,1,0.327,3.63,0,1,0.24,4.02,0,1,0.272,5.49,0,1
94082,20110724,-108.97,40.24,0.208,4.41,0,1,0.271,3.6,0,1,0.26,2.68,0,1,0.293,2.73,0,1,0.324,3.43,0,1,0.239,3.99,0,1,0.271,5.58,0,1
94082,20110725,-108.97,40.24,0.205,4.18,0,1,0.271,3.83,0,1,0.26,2.69,0,1,0.291,2.68,0,1,0.322,3.23,0,1,0.238,3.91,0,1,0.27,5.61,0,1
94082,20110726,-108.97,40.24,0.201,3.87,0,1,0.271,4.05,0,1,0.259,2.7,0,1,0.291,2.62,0,1,0.32,3.07,0,1,0.236,3.81,0,1,0.268,5.6,0,1
94082,20110727,-108.97,40.24,0.196,3.52,0,1,0.271,4.23,0,1,0.259,2.71,0,1,0.29,2.58,0,1,0.318,2.93,0,1,0.234,3.67,0,1,0.267,5.54,0,1
94082,20110728,-108.97,40.24,0.191,3.13,0,1,0.27,4.34,0,1,0.258,2.7,0,1,0.289,2.52,0,1,0.316,2.8,0,1,0.231,3.51,0,1,0.265,5.43,0,1
94082,20110729,-108.97,40.24,0.187,2.77,0,1,0.269,4.41,0,1,0.257,2.69,0,1,0.287,2.46,0,1,0.315,2.7,0,1,0.228,3.35,0,1,0.263,5.31,0,1
94082,20110730,-108.97,40.24,0.185,2.44,0,1,0.268,4.47,0,1,0.256,2.7,0,1,0.286,2.4,0,1,0.313,2.6,0,1,0.227,3.23,0,1,0.262,5.21,0,1
94082,20110731,-108.97,40.24,0.184,2.21,0,1,0.267,4.53,0,1,0.255,2.71,0,1,0.285,2.36,0,1,0.312,2.5,0,1,0.226,3.15,0,1,0.261,5.13,0,1
94082,20110801,-108.97,40.24,0.183,2.04,0,1,0.266,4.55,0,1,0.254,2.73,0,1,0.284,2.32,0,1,0.311,2.43,0,1,0.225,3.07,0,1,0.26,5.05,0,1
94082,20110802,-108.97,40.24,0.183,1.94,0,1,0.265,4.53,0,1,0.253,2.72,0,1,0.284,2.29,0,1,0.31,2.38,0,1,0.224,2.99,0,1,0.259,4.95,0,1
94082,20110803,-108.97,40.24,0.185,1.94,0,1,0.264,4.53,0,1,0.252,2.72,0,1,0.282,2.23,0,1,0.309,2.31,0,1,0.225,2.97,0,1,0.258,4.89,0,1
94082,20110804,-108.97,40.24,0.183,1.91,0,1,0.264,4.54,0,1,0.251,2.74,0,1,0.282,2.2,0,1,0.308,2.25,0,1,0.224,2.92,0,1,0.258,4.79,0,1
94082,20110805,-108.97,40.24,0.18,1.85,0,1,0.263,4.51,0,1,0.25,2.72,0,1,0.281,2.16,0,1,0.307,2.19,0,1,0.221,2.83,0,1,0.256,4.65,0,1
94082,20110806,-108.97,40.24,0.176,1.78,0,1,0.262,4.47,0,1,0.249,2.7,0,1,0.28,2.11,0,1,0.307,2.13,0,1,0.219,2.74,0,1,0.255,4.48,0,1
94082,20110807,-108.97,40.24,0.171,1.7,0,1,0.26,4.41,0,1,0.248,2.68,0,1,0.279,2.05,0,1,0.306,2.08,0,1,0.216,2.63,0,1,0.253,4.3,0,1
94082,20110808,-108.97,40.24,0.168,1.65,0,1,0.259,4.33,0,1,0.247,2.66,0,1,0.277,1.99,0,1,0.305,2.01,0,1,0.213,2.54,0,1,0.251,4.14,0,1
94082,20110809,-108.97,40.24,0.165,1.61,0,1,0.258,4.28,0,1,0.246,2.65,0,1,0.276,1.93,0,1,0.304,1.94,0,1,0.212,2.49,0,1,0.25,4.02,0,1
94082,20110810,-108.97,40.24,0.163,1.56,0,1,0.257,4.2,0,1,0.245,2.64,0,1,0.275,1.88,0,1,0.303,1.87,0,1,0.21,2.42,0,1,0.249,3.91,0,1
94082,20110811,-108.97,40.24,0.161,1.52,0,1,0.256,4.13,0,1,0.244,2.64,0,1,0.274,1.83,0,1,0.302,1.8,0,1,0.208,2.37,0,1,0.247,3.8,0,1
94082,20110812,-108.97,40.24,0.158,1.46,0,1,0.256,4.06,0,1,0.244,2.67,0,1,0.273,1.78,0,1,0.301,1.72,0,1,0.207,2.31,0,1,0.246,3.69,0,1
94082,20110813,-108.97,40.24,0.153,1.36,0,1,0.255,3.97,0,1,0.244,2.7,0,1,0.273,1.76,0,1,0.3,1.67,0,1,0.204,2.22,0,1,0.245,3.57,0,1
94082,20110814,-108.97,40.24,0.148,1.25,0,1,0.254,3.87,0,1,0.243,2.72,0,1,0.272,1.74,0,1,0.3,1.62,0,1,0.201,2.12,0,1,0.243,3.44,0,1
94082,20110815,-108.97,40.24,0.142,1.1,0,0.97,0.252,3.71,0,1,0.243,2.72,0,1,0.272,1.73,0,1,0.299,1.59,0,1,0.197,1.98,0,1,0.241,3.28,0,1
94082,20110816,-108.97,40.24,0.137,0.99,0,0.97,0.25,3.54,0,1,0.242,2.7,0,1,0.271,1.7,0,1,0.299,1.56,0,1,0.193,1.86,0,1,0.24,3.12,0,1
94082,20110817,-108.97,40.24,0.134,0.9,0,0.97,0.247,3.39,0,1,0.241,2.69,0,1,0.27,1.68,0,1,0.298,1.53,0,1,0.191,1.76,0,1,0.238,2.97,0,1
94082,20110818,-108.97,40.24,0.131,0.83,0,0.97,0.245,3.25,0,1,0.241,2.68,0,1,0.27,1.66,0,1,0.297,1.5,0,1,0.188,1.67,0,1,0.237,2.84,0,1
94082,20110819,-108.97,40.24,0.128,0.77,0,0.97,0.242,3.11,0,1,0.24,2.67,0,1,0.269,1.66,0,1,0.297,1.48,0,1,0.185,1.59,0,1,0.235,2.71,0,1
94082,20110820,-108.97,40.24,0.126,0.72,0,0.946,0.24,2.99,0,1,0.24,2.65,0,1,0.269,1.65,0,1,0.296,1.46,0,1,0.183,1.51,0,1,0.234,2.59,0,1
94082,20110821,-108.97,40.24,0.124,0.68,0,0.899,0.237,2.86,0,1,0.239,2.64,0,1,0.268,1.63,0,1,0.296,1.44,0,1,0.181,1.44,0,1,0.233,2.46,0,1
94082,20110822,-108.97,40.24,0.124,0.67,0,0.893,0.235,2.78,0,1,0.239,2.64,0,1,0.267,1.62,0,1,0.296,1.43,0,1,0.18,1.4,0,1,0.232,2.37,0,1
94082,20110823,-108.97,40.24,0.123,0.64,0,0.887,0.233,2.7,0,1,0.239,2.65,0,1,0.267,1.61,0,1,0.295,1.41,0,1,0.178,1.36,0,1,0.231,2.27,0,1
94082,20110824,-108.97,40.24,0.122,0.62,0,0.887,0.231,2.61,0,1,0.238,2.66,0,1,0.267,1.61,0,1,0.295,1.41,0,1,0.176,1.31,0,1,0.231,2.16,0,1
94082,20110825,-108.97,40.24,0.12,0.6,0,0.887,0.228,2.51,0,1,0.238,2.66,0,1,0.267,1.61,0,1,0.294,1.41,0,1,0.174,1.27,0,1,0.23,2.07,0,1
94082,20110826,-108.97,40.24,0.119,0.58,0,0.881,0.226,2.42,0,1,0.238,2.66,0,1,0.267,1.6,0,1,0.294,1.41,0,1,0.173,1.24,0,1,0.229,1.97,0,1
94082,20110827,-108.97,40.24,0.119,0.56,0,0.905,0.224,2.33,0,1,0.237,2.66,0,1,0.266,1.59,0,1,0.294,1.43,0,1,0.171,1.21,0,1,0.228,1.87,0,1
94082,20110828,-108.97,40.24,0.118,0.55,0,0.94,0.221,2.24,0,1,0.237,2.65,0,1,0.266,1.59,0,1,0.294,1.44,0,1,0.17,1.18,0,1,0.227,1.77,0,1
94082,20110829,-108.97,40.24,0.117,0.53,0,0.923,0.219,2.15,0,1,0.236,2.64,0,1,0.266,1.58,0,1,0.294,1.43,0,1,0.168,1.14,0,1,0.226,1.67,0,1
94082,20110830,-108.97,40.24,0.116,0.51,0,0.917,0.217,2.06,0,1,0.236,2.62,0,1,0.266,1.57,0,1,0.294,1.45,0,1,0.166,1.11,0,1,0.226,1.57,0,1
94082,20110831,-108.97,40.24,0.114,0.49,0,0.827,0.215,1.96,0,1,0.235,2.59,0,1,0.265,1.57,0,1,0.294,1.46,0,1,0.164,1.06,0,1,0.225,1.48,0,1
94082,20110901,-108.97,40.24,0.113,0.47,0,0.792,0.212,1.86,0,1,0.234,2.55,0,1,0.265,1.54,0,1,0.294,1.48,0,1,0.163,1.02,0,1,0.224,1.38,0,1
94082,20110902,-108.97,40.24,0.113,0.46,0,0.798,0.21,1.77,0,1,0.233,2.51,0,1,0.264,1.52,0,1,0.294,1.5,0,1,0.161,0.98,0,1,0.223,1.31,0,1
94082,20110903,-108.97,40.24,0.112,0.44,0,0.702,0.207,1.69,0,1,0.232,2.47,0,1,0.263,1.5,0,1,0.294,1.5,0,1,0.16,0.93,0,1,0.222,1.23,0,1
94082,20110904,-108.97,40.24,0.111,0.42,0,0.577,0.205,1.61,0,1,0.231,2.42,0,1,0.262,1.47,0,1,0.294,1.52,0,1,0.158,0.88,0,1,0.221,1.17,0,1
94082,20110905,-108.97,40.24,0.11,0.39,0,0.488,0.203,1.54,0,1,0.23,2.35,0,1,0.262,1.45,0,1,0.293,1.53,0,1,0.157,0.82,0,1,0.22,1.12,0,1
94082,20110906,-108.97,40.24,0.109,0.36,0,0.357,0.201,1.48,0,1,0.229,2.27,0,1,0.261,1.42,0,1,0.293,1.53,0,1,0.155,0.77,0,1,0.218,1.07,0,1
94082,20110907,-108.97,40.24,0.108,0.31,0,0.304,0.199,1.4,0,1,0.227,2.19,0,1,0.26,1.38,0,1,0.293,1.53,0,1,0.153,0.7,0,0.893,0.217,1.01,0,1
94082,20110908,-108.97,40.24,0.108,0.29,0,0.223,0.196,1.32,0,1,0.226,2.1,0,1,0.259,1.35,0,1,0.292,1.52,0,1,0.152,0.65,0,0.849,0.216,0.96,0,1
94082,20110909,-108.97,40.24,0.111,0.32,0,0.223,0.194,1.25,0,1,0.225,1.98,0,1,0.258,1.3,0,1,0.292,1.52,0,1,0.153,0.62,0,0.849,0.216,0.93,0,1
94082,20110910,-108.97,40.24,0.116,0.38,0,0.319,0.192,1.18,0,1,0.223,1.86,0,1,0.256,1.25,0,1,0.291,1.51,0,1,0.154,0.62,0,0.849,0.216,0.91,0,1
94082,20110911,-108.97,40.24,0.123,0.46,0,0.458,0.192,1.15,0,1,0.222,1.74,0,1,0.255,1.21,0,1,0.29,1.5,0,1,0.157,0.64,0,0.849,0.217,0.92,0,1
94082,20110912,-108.97,40.24,0.13,0.54,0,0.602,0.191,1.12,0,1,0.222,1.66,0,1,0.254,1.18,0,1,0.29,1.5,0,1,0.16,0.66,0,0.849,0.217,0.93,0,1
94082,20110913,-108.97,40.24,0.136,0.62,0,0.747,0.191,1.09,0,1,0.221,1.58,0,1,0.254,1.15,0,1,0.29,1.48,0,1,0.164,0.68,0,0.849,0.218,0.93,0,1
94082,20110914,-108.97,40.24,0.143,0.71,0,0.892,0.192,1.1,0,1,0.22,1.52,0,1,0.253,1.13,0,1,0.289,1.46,0,1,0.168,0.73,0,0.958,0.22,0.96,0,1
94082,20110915,-108.97,40.24,0.146,0.74,0,1,0.194,1.12,0,1,0.22,1.5,0,1,0.253,1.14,0,1,0.288,1.43,0,1,0.17,0.74,0,1,0.22,0.96,0,1
94082,20110916,-108.97,40.24,0.146,0.7,0,0.982,0.195,1.13,0,1,0.22,1.48,0,1,0.252,1.14,0,1,0.288,1.41,0,1,0.17,0.71,0,1,0.22,0.94,0,1
94082,20110917,-108.97,40.24,0.144,0.65,0,0.976,0.196,1.13,0,1,0.22,1.48,0,1,0.252,1.13,0,1,0.288,1.4,0,1,0.17,0.68,0,1,0.22,0.92,0,1
94082,20110918,-108.97,40.24,0.141,0.58,0,0.851,0.196,1.11,0,1,0.219,1.47,0,1,0.251,1.13,0,1,0.287,1.38,0,1,0.169,0.62,0,0.994,0.219,0.87,0,1
94082,20110919,-108.97,40.24,0.138,0.51,0,0.804,0.196,1.09,0,1,0.218,1.45,0,1,0.251,1.12,0,1,0.287,1.37,0,1,0.167,0.57,0,0.982,0.218,0.82,0,1
94082,20110920,-108.97,40.24,0.137,0.46,0,0.774,0.197,1.07,0,1,0.218,1.44,0,1,0.25,1.1,0,1,0.286,1.35,0,1,0.167,0.53,0,0.982,0.217,0.78,0,1
94082,20110921,-108.97,40.24,0.135,0.41,0,0.631,0.197,1.03,0,1,0.217,1.44,0,1,0.25,1.08,0,1,0.286,1.35,0,1,0.166,0.49,0,0.976,0.217,0.74,0,1
94082,20110922,-108.97,40.24,0.134,0.37,0,0.488,0.197,0.99,0,1,0.217,1.44,0,1,0.249,1.05,0,1,0.286,1.34,0,1,0.166,0.46,0,0.869,0.216,0.7,0,1
94082,20110923,-108.97,40.24,0.134,0.33,0,0.363,0.197,0.94,0,1,0.216,1.44,0,1,0.248,1.04,0,1,0.285,1.33,0,1,0.166,0.43,0,0.726,0.216,0.67,0,1
94082,20110924,-108.97,40.24,0.132,0.28,0,0.226,0.198,0.89,0,1,0.216,1.45,0,1,0.248,1.05,0,1,0.285,1.31,0,1,0.165,0.4,0,0.583,0.216,0.64,0,1
94082,20110925,-108.97,40.24,0.131,0.24,0,0.208,0.199,0.84,0,1,0.217,1.46,0,1,0.248,1.06,0,1,0.284,1.29,0,1,0.165,0.37,0,0.446,0.216,0.61,0,1
94082,20110926,-108.97,40.24,0.129,0.19,0,0.113,0.199,0.79,0,1,0.217,1.47,0,1,0.248,1.1,0,1,0.284,1.29,0,1,0.164,0.33,0,0.315,0.215,0.57,0,0.982
94082,20110927,-108.97,40.24,0.127,0.13,0,0,0.2,0.74,0,1,0.217,1.48,0,1,0.248,1.15,0,1,0.284,1.3,0,1,0.163,0.29,0,0.173,0.215,0.53,0,0.899
94082,20110928,-108.97,40.24,0.124,0.07,0,0,0.2,0.69,0,1,0.217,1.47,0,1,0.248,1.2,0,1,0.283,1.29,0,1,0.162,0.24,0,0.036,0.214,0.49,0,0.762
94082,20110929,-108.97,40.24,0.121,0.03,0,0,0.2,0.65,0,1,0.217,1.46,0,1,0.248,1.24,0,1,0.283,1.29,0,1,0.16,0.21,0,0,0.214,0.45,0,0.619
94082,20110930,-108.97,40.24,0.118,-0.01,0,0,0.2,0.61,0,0.994,0.217,1.45,0,1,0.248,1.28,0,1,0.283,1.3,0,1,0.159,0.17,0,0,0.213,0.41,0,0.476
94082,20111001,-108.97,40.24,0.116,-0.04,0,0,0.2,0.57,0,0.923,0.217,1.43,0,1,0.248,1.31,0,1,0.283,1.32,0,1,0.158,0.13,0,0,0.213,0.38,0,0.333
94082,20111002,-108.97,40.24,0.114,-0.06,0,0,0.199,0.53,0,0.78,0.217,1.41,0,1,0.248,1.33,0,1,0.283,1.34,0,1,0.157,0.1,0,0,0.212,0.35,0,0.19
94082,20111003,-108.97,40.24,0.113,-0.09,0,0,0.198,0.49,0,0.637,0.217,1.39,0,1,0.248,1.33,0,1,0.283,1.35,0,1,0.155,0.06,0,0,0.212,0.32,0,0.065
94082,20111004,-108.97,40.24,0.111,-0.11,0,0,0.197,0.44,0,0.494,0.217,1.36,0,1,0.248,1.33,0,1,0.283,1.38,0,1,0.154,0.03,0,0,0.211,0.29,0,0.006
94082,20111005,-108.97,40.24,0.109,-0.14,0,0,0.195,0.38,0,0.351,0.216,1.34,0,1,0.248,1.32,0,1,0.283,1.41,0,1,0.152,-0.01,0,0,0.21,0.26,0,0
94082,20111006,-108.97,40.24,0.108,-0.16,0,0,0.193,0.32,0,0.208,0.215,1.31,0,1,0.247,1.31,0,1,0.283,1.43,0,1,0.15,-0.05,0,0,0.209,0.22,0,0
94082,20111007,-108.97,40.24,0.114,-0.13,0,0,0.189,0.24,0,0.071,0.214,1.25,0,1,0.247,1.28,0,1,0.283,1.45,0,1,0.152,-0.05,0,0,0.209,0.21,0,0
94082,20111008,-108.97,40.24,0.124,-0.09,0,0,0.185,0.16,0,0,0.211,1.18,0,1,0.245,1.23,0,1,0.283,1.47,0,1,0.154,-0.05,0,0,0.21,0.21,0,0
94082,20111009,-108.97,40.24,0.144,0.03,0,0.101,0.18,0.08,0,0,0.208,1.1,0,1,0.244,1.16,0,1,0.282,1.46,0,1,0.162,0.01,0,0.036,0.212,0.25,0,0.101
94082,20111010,-108.97,40.24,0.168,0.17,0,0.244,0.178,0.03,0,0,0.205,1.02,0,1,0.241,1.07,0,1,0.281,1.44,0,1,0.173,0.09,0,0.179,0.215,0.32,0,0.244
94082,20111011,-108.97,40.24,0.192,0.3,0,0.387,0.177,0.01,0,0,0.202,0.96,0,1,0.239,1,0,1,0.28,1.42,0,1,0.185,0.17,0,0.31,0.218,0.39,0,0.387
94082,20111012,-108.97,40.24,0.216,0.44,0,0.53,0.179,0,0,0,0.2,0.91,0,1,0.237,0.95,0,1,0.279,1.39,0,1,0.197,0.26,0,0.452,0.222,0.47,0,0.53